Regional Weather Roundup
Issued by NWS

Home | Current Version | Previous Version | Graphics & Text | Print | Product List | Glossary On
Versions: 1 2 3 4 5 6 7 8 9 10 11 12 13 14 15 16 17 18 19 20 21 22 23 24 25 26 27 28 29 30 31 32 33 34 35 36 37 38 39 40 41 42 43 44 45 46 47 48 49 50
932
ASUS43 KDMX 310303
RWRIA

WEATHER ROUNDUP FOR IOWA
NATIONAL WEATHER SERVICE DES MOINES IA
1000 PM CDT MON MAY 30 2016

NOTE: "FAIR" INDICATES FEW OR NO CLOUDS BELOW 12,000 FEET WITH NO
SIGNIFICANT WEATHER AND/OR OBSTRUCTIONS TO VISIBILITY.

* - THESE STATIONS ARE NOT NWS STATIONS...THUS NOT UNDER NWS
QUALITY CONTROL.  THEY ALSO DO NOT REPORT WEATHER SUCH
AS PRECIPITATION OR FOG.

IAZ001>003-012>014-020>022-031>034-043>046-310400-
   NORTHWEST IOWA

CITY           SKY/WX    TMP DP  RH WIND       PRES   REMARKS
CARROLL *      PTCLDY    70  55  60 S10G16    29.89R
CHEROKEE *     CLOUDY    69  56  65 S14G22    29.88R THUNDER
DENISON *      CLOUDY    68  57  68 S8G16     29.88R
LE MARS *      PTCLDY    72  55  56 S21       29.86R
ORANGE CITY *  PTCLDY    68  61  77 S8        29.85R
SHELDON *      CLOUDY    70  61  73 S13       29.83R
SIOUX CITY     MOCLDY    72  59  63 SE15G24   29.86R
SPENCER        CLOUDY    71  57  61 S10       29.88R
STORM LAKE *   PTCLDY    72  52  49 S16       29.88R
$$

IAZ055>058-069>071-079>083-090>094-310400-
   SOUTHWEST IOWA

CITY           SKY/WX    TMP DP  RH WIND       PRES   REMARKS
ATLANTIC *     CLOUDY    66  57  72 S12G17    29.90S
AUDUBON *      CLOUDY    70  55  60 S12       29.91R
CLARINDA *       N/A     66  63  88 MISG      29.95R
COUNCIL BLFS * CLOUDY    66  63  88 SE17      29.89F
CRESTON *      CLOUDY    64  61  88 SW15      29.93F
HARLAN  *      CLOUDY    70  57  64 S14G21    29.93R
LAMONI         CLOUDY    65  61  87 SW6       29.96S
RED OAK *      LGT RAIN  66  63  88 S8        29.93R
SHENANDOAH *   CLOUDY    66  66 100 SE14      29.94R
$$

IAZ047>049-059>061-072>074-084-310400-
   CENTRAL IOWA

CITY           SKY/WX    TMP DP  RH WIND       PRES   REMARKS
AMES           CLOUDY    64  63  96 E3        29.93R
ANKENY *       CLOUDY    73  55  53 S7G15     29.92S
BOONE *          N/A     68  61  77 CALM      29.92S
CHARITON *     MOCLDY    68  63  83 SW6       29.94F
DES MOINES     CLOUDY    72  55  55 S9        29.91F
GRINNELL*      CLOUDY    75  63  64 SW7       29.95R
KNOXVILLE *    CLOUDY    72  61  68 SW7       29.93S
MARSHALLTOWN   CLOUDY    66  60  81 NW13      29.95R
NEWTON *       CLOUDY    73  63  68 W9        29.94R
PELLA *        CLOUDY    73  60  65 SW5       29.95S
PERRY *          N/A     68  63  83 SE7       29.90S
$$

IAZ004>006-015-016-023>025-035-036-310400-
   NORTH CENTRAL IOWA

CITY           SKY/WX    TMP DP  RH WIND       PRES   REMARKS
ALGONA *       CLOUDY    66  59  77 SE15G22   29.92R
CLARION *      DRIZZLE   68  57  68 SE18G30   29.94R
ESTHERVILLE    MOCLDY    67  60  78 SE20      29.89R
FORT DODGE *   CLOUDY    66  55  68 SE10      29.93R
MASON CITY     LGT RAIN  67  61  81 W10       29.98S
FOREST CITY *  RAIN      63  59  88 S17       29.96R
WEBSTER CITY * CLOUDY    66  61  82 E15       29.92R
IOWA FALLS *   RAIN      64  59  82 S10G22    30.02R
$$

IAZ007>011-017>019-026>030-037>042-050>054-066-310400-
   NORTHEAST IOWA

CITY           SKY/WX    TMP DP  RH WIND       PRES   REMARKS
CEDAR RAPIDS   PTCLDY    70  64  81 S7        29.94R
CHARLES CITY * CLOUDY    66  63  88 SE13G20   30.00R
CLINTON *      PTCLDY    76  61  59 SW5       29.96R
DECORAH *      LGT RAIN  68  61  77 CALM      29.97R
DUBUQUE        CLOUDY    71  53  52 E9        29.95F
MONTICELLO *   CLOUDY    73  59  60 CALM      29.94S
OELWEIN *      RAIN      64  63  94 E9        30.00R
WATERLOO       TSTM      66  61  84 W8        29.97R
$$

IAZ064-065-067-068-078-310400-
   EAST CENTRAL IOWA

CITY           SKY/WX    TMP DP  RH WIND       PRES   REMARKS
DAVENPORT      CLEAR     76  61  59 SW7       29.96R
IOWA CITY      CLEAR     74  63  68 CALM      29.95R
MT. PLEASANT * CLEAR     73  68  83 S7        29.95R
MUSCATINE *    CLEAR     73  64  73 S6        29.95R
QUAD CITIES    CLEAR     72  62  71 S3        29.95R
$$

IAZ062-063-075>077-085>089-095>099-310400-
   SOUTHEAST IOWA

CITY           SKY/WX    TMP DP  RH WIND       PRES   REMARKS
BURLINGTON     CLEAR     73  65  75 S5        29.96R
FAIRFIELD *      N/A    N/A N/A N/A MISG        N/A
FORT MADISON * CLEAR     73  66  78 SW8       29.98R
KEOKUK *       PTCLDY    73  64  73 SW8       29.97R
OSKALOOSA *      N/A     73  61  64 SW13      29.96R
OTTUMWA        CLEAR     73  59  61 SW7       29.95R
WASHINGTON *   CLEAR     73 -36   1 S5        29.96R
$$

ABBREVIATIONS USED IN REMARKS
   TC - TEMPERATURES IN CELSIUS
  WCI - WIND CHILL INDEX
   HX - HEAT INDEX
  VSB - VISIBILITY
$$





USA.gov is the U.S. government's official web portal to all federal, state and local government web resources and services.